Regional Weather Roundup
Issued by NWS

Home | Current Version | Previous Version | Graphics & Text | Print | Product List | Glossary On
Versions: 1 2 3 4 5 6 7 8 9 10 11 12 13 14 15 16 17 18 19 20 21 22 23 24 25 26 27 28 29 30 31 32 33 34 35 36 37 38 39 40 41 42 43 44 45 46 47 48 49 50
000
ASUS45 KABQ 271101
RWRNM
WEATHER ROUNDUP FOR NEW MEXICO
NATIONAL WEATHER SERVICE ALBUQUERQUE NM
400 AM MST THU NOV 27 2014

NOTE: "FAIR" MEANS FEW OR NO CLOUDS BELOW 12,000 FEET AGL WITH NO
       SIGNIFICANT WEATHER OR OBSTRUCTIONS TO VISION.

      THIS PRODUCT IS RELEASED AS TWO VERSIONS.  ONE VERSION NEAR
      THE TOP OF THE HOUR CONTAINING PRELIMINARY DATA FROM ALBUQUERQUE
      AND OTHER STATIONS.  A FINAL VERSION WITH ADDITIONAL DATA IS
      ISSUED ABOUT 10 MINUTES AFTER THE HOUR.

NMZ501-503-504-510>518-271200-
NORTHWEST PLATEAU/NORTHCENTRAL MOUNTAINS

CITY           SKY/WX    TMP DP  RH WIND       PRES   REMARKS
FARMINGTON     CLEAR     28  20  71 E9        30.46F WCI  19
SANTA FE       CLEAR     31  21  66 N12       30.44S WCI  22
TAOS           PTCLDY    19  16  86 N6        30.49S WCI  11

$$
NMZ402-403-502-505>509-271200-
WESTCENTRAL MOUNTAINS/SOUTHWEST MOUNTAINS

CITY           SKY/WX    TMP DP  RH WIND       PRES   REMARKS
GALLUP         PTCLDY    16   8  71 CALM      30.50S
SILVER CITY    CLEAR     36  18  48 N10       30.41S WCI  28

$$
NMZ407-409-411-412-271200-
SOUTHERN DESERTS

CITY           SKY/WX    TMP DP  RH WIND       PRES   REMARKS
DEMING         PTCLDY    32  17  54 NW3       30.38S
HOLLOMAN AFB   MOCLDY    31  18  58 E3        30.38R
T OR C         CLEAR     41  20  43 NW9       30.40S

$$
NMZ519>523-271200-
CENTRAL VALLEYS/CENTRAL HIGHLANDS

CITY           SKY/WX    TMP DP  RH WIND       PRES   REMARKS
ALBUQUERQUE    PTCLDY    39  23  52 NE6       30.44F WCI  35
DOUBLE EAGLE   CLEAR     32  19  59 NW7       30.45S WCI  25
CLINES CORNERS PTCLDY    31  21  66 NW15      30.40F WCI  20
BELEN          FAIR      32  21  64 NW9       30.44S WCI  24
SOCORRO        NOT AVBL

$$
NMZ524>526-539-540-271200-
SOUTHCENTRAL MOUNTAINS

CITY           SKY/WX    TMP DP  RH WIND       PRES   REMARKS
RUIDOSO        PTCLDY    39  18  41 NW3       30.45S

$$
NMZ527>531-271200-
NORTHEAST HIGHLANDS/NORTHEAST PLAINS

CITY           SKY/WX    TMP DP  RH WIND       PRES   REMARKS
LAS VEGAS      CLEAR     34  15  46 NW7       30.39S WCI  28
RATON          PTCLDY    23  19  85 NE7       30.37S WCI  15
CLAYTON        PTCLDY    31  23  72 SW14      30.34F WCI  21

$$
NMZ532>537-271200-
EASTCENTRAL PLAINS

CITY           SKY/WX    TMP DP  RH WIND       PRES   REMARKS
TUCUMCARI      PTCLDY    28  23  81 NW3       30.39S
CANNON AFB     PTCLDY    32  23  71 CALM      30.42S
CLOVIS AIRPORT PTCLDY    28  21  74 SW3       30.42R

$$
NMZ028-029-538-271200-
SOUTHEAST PLAINS

CITY           SKY/WX    TMP DP  RH WIND       PRES   REMARKS
ROSWELL        PTCLDY    34  25  69 CALM      30.41R
CARLSBAD       CLEAR     36  26  67 S7        30.39S WCI  30
HOBBS          PTCLDY    34  30  86 CALM      30.43R


$$



USA.gov is the U.S. government's official web portal to all federal, state and local government web resources and services.